Flag for Netherlands Weather past 2 weeks in Amersfoort, Netherlands

Now
57 °F

Passing clouds.


Feels Like: 57 °F
Forecast: 54 / 69 °F
Wind: No wind

Location: Deelen

Current Time: Aug 27, 2014 at 9:19:58 PM

Latest Report: Aug 27, 2014 at 8:55 PM


Visibility: N/A

Pressure: 30.01 "Hg

Humidity: 82%

Dew point: 52 °F

Location of AmersfoortLocation

Historic Weather in Amersfoort — Graph

°F

Amersfoort temperature yesterday

Maximum temperature yesterday: 61 °F (at 3:55 PM)
Minimum temperature yesterday: 50 °F (at 10:55 PM)
Average temperature yesterday: 56 °F

Past Weeks' High & Low Weather Summary

 TemperatureHumidityPressure
High70 °F (Aug 13, 2:25 PM)100% (Aug 13, 6:25 AM)30.09 "Hg (Aug 13, 6:25 AM)
Low43 °F (Aug 25, 12:55 AM)49% (Aug 23, 5:55 PM)29.62 "Hg (Aug 18, 2:55 AM)
Average56 °F85%29.87 "Hg
* Reported Aug 12 7:25 PM — Aug 27 7:55 PM, Amersfoort, Weather by CustomWeather, © 2014

Note: Actual official high and low records may vary slightly from our data, if they occured in-between our weather recording intervals... More about our weather records

Advertising

Amersfoort weather history for previous 24 hours

 ConditionsComfort  
Time TempWeatherWind HumidityBarometerVisibility
7:55 PM
Aug 27
64 °FMild.3 mph64%30.01 "HgN/A
7:25 PM66 °FMild.6 mph56%30.01 "HgN/A
6:55 PM68 °FMild.8 mph53%30.01 "HgN/A
6:25 PM68 °FMild.7 mph56%30.01 "HgN/A
5:55 PM68 °FMild.7 mph53%30.01 "HgN/A
4:25 PM70 °FPassing clouds.6 mph53%30.01 "HgN/A
3:55 PM70 °FMild.9 mph53%30.01 "HgN/A
3:25 PM68 °FPassing clouds.7 mph49%30.01 "HgN/A
2:55 PM68 °FMild.7 mph53%30.01 "HgN/A
2:25 PM68 °FMild.7 mph53%30.01 "HgN/A
1:55 PM68 °FPassing clouds.7 mph53%30.01 "HgN/A
1:25 PM68 °FPassing clouds.7 mph53%30.04 "HgN/A
12:55 PM66 °FPassing clouds.6 mph52%30.04 "HgN/A
12:25 PM64 °FScattered clouds.6 mph56%30.04 "HgN/A
11:55 AM66 °FMild.5 mph60%30.04 "HgN/A
11:25 AM64 °FMild.6 mph68%30.01 "HgN/A
10:55 AM64 °FPassing clouds.5 mph64%30.01 "HgN/A
10:25 AM61 °FCool.5 mph77%30.01 "HgN/A
9:55 AM61 °FPassing clouds.5 mph77%30.01 "HgN/A
9:25 AM59 °FPassing clouds.3 mph82%30.01 "HgN/A
8:55 AM55 °FCool.5 mph88%29.98 "HgN/A
8:25 AM50 °FCool.1 mph94%29.98 "HgN/A
7:55 AM46 °FPassing clouds.No wind93%29.98 "HgN/A
7:25 AM43 °FPassing clouds.2 mph100%29.95 "HgN/A
6:55 AM43 °FFog.2 mph100%29.95 "Hg4 mi
6:25 AM45 °FFog.2 mph100%29.95 "Hg4 mi
5:55 AM48 °FPassing clouds.2 mph94%29.95 "HgN/A
5:25 AM48 °FPassing clouds.1 mph94%29.92 "HgN/A
4:55 AM48 °FPassing clouds.1 mph94%29.92 "HgN/A
4:25 AM48 °FPassing clouds.1 mph100%29.92 "HgN/A
3:55 AM48 °FPassing clouds.2 mph94%29.92 "HgN/A
3:25 AM48 °FPassing clouds.5 mph100%29.92 "HgN/A
2:55 AM48 °FCool.8 mph100%29.89 "HgN/A
2:25 AM50 °FCool.9 mph94%29.89 "HgN/A
1:55 AM50 °FCool.9 mph94%29.89 "HgN/A
1:25 AM50 °FPassing clouds.10 mph94%29.89 "HgN/A
12:55 AM50 °FPassing clouds.10 mph94%29.86 "HgN/A
12:25 AM52 °FPassing clouds.10 mph88%29.86 "HgN/A
11:55 PM
Aug 26
52 °FPassing clouds.10 mph88%29.86 "HgN/A
11:25 PM52 °FPassing clouds.9 mph94%29.83 "HgN/A
10:55 PM50 °FFog.1 mph100%29.83 "Hg1 mi
10:25 PM52 °FFog.3 mph94%29.83 "Hg1 mi
9:55 PM52 °FFog.6 mph100%29.80 "Hg5 mi
9:25 PM54 °FFog.6 mph94%29.80 "Hg6 mi
Weather by CustomWeather, © 2014

See weather overviewHow to use our weather pages